Zurück zum Katalog

DELTA 1 DEB

AktivSSO
NORAD 42588·DEBRIS·🇺🇸 United States

Gestartet Nov 6, 1973 von Vandenberg Space Force Base

Loading…

Nächste Überflüge (nächste 24 Stunden)

TLE

AlterndSource: Space-Track

Epoche: Sep 6, 2026, 05:34 UTC

1 42588U 73086JC  26249.23255969 -.00000017  00000-0  22905-3 0  9995
2 42588 102.4563 253.9310 0066725 192.3007 230.9536 12.36030810577204

Verfolge DELTA 1 DEB in Echtzeit mit AllMySat

Download on the App Store